Flag for Russia Weather past 2 weeks in Yuzhno-Sakhalinsk, Russia

Now
10 °F

Passing clouds.


Feels Like: 10 °F
Forecast: 0 / 23 °F
Wind: No wind

Location: Yuzhno Airport-Sakhalinsk

Current Time: Jan 30, 2015 at 7:14:42 AM

Latest Report: Jan 30, 2015 at 6:30 AM


Visibility: N/A

Pressure: 30.12 "Hg

Humidity: 92%

Dew point: 9 °F

Location of Yuzhno-SakhalinskLocation

Historic Weather in Yuzhno-Sakhalinsk — Graph

°F

Yuzhno-Sakhalinsk temperature yesterday

Maximum temperature yesterday: 23 °F (at 2:30 PM)
Minimum temperature yesterday: -8 °F (at 3:00 AM)
Average temperature yesterday: 7 °F

Past Weeks' High & Low Weather Summary

 TemperatureHumidityPressure
High36 °F (Jan 27, 10:30 AM)100% (Jan 22, 9:00 AM)30.36 "Hg (Jan 22, 9:00 AM)
Low-18 °F (Jan 19, 6:00 AM)50% (Jan 25, 3:00 PM)29.53 "Hg (Jan 27, 10:00 AM)
Average12 °F82%29.96 "Hg
* Reported Jan 15 6:00 AM — Jan 30 6:00 AM, Yuzhno-Sakhalinsk, Weather by CustomWeather, © 2014

Note: Actual official high and low records may vary slightly from our data, if they occured in-between our weather recording intervals... More about our weather records

Advertising

Yuzhno-Sakhalinsk weather history for previous 24 hours

 ConditionsComfort  
Time TempWeatherWind HumidityBarometerVisibility
6:00 AM
Jan 30
10 °FPassing clouds.1 mph85%30.12 "HgN/A
5:00 AM9 °FPassing clouds.1 mph85%30.12 "HgN/A
4:00 AM10 °FPassing clouds.1 mph85%30.12 "HgN/A
3:00 AM7 °FPassing clouds.3 mph85%30.15 "HgN/A
2:00 AM7 °FPassing clouds.1 mph92%30.12 "HgN/A
1:00 AM7 °FPassing clouds.1 mph85%30.12 "HgN/A
12:00 AM9 °FPassing clouds.No wind85%30.12 "HgN/A
11:00 PM
Jan 29
7 °FPassing clouds.1 mph92%30.12 "HgN/A
10:00 PM1 °FPassing clouds.No wind92%30.12 "HgN/A
9:30 PM1 °FPassing clouds.3 mph85%30.12 "HgN/A
9:00 PM1 °FPassing clouds.3 mph92%30.12 "HgN/A
8:30 PM5 °FPassing clouds.6 mph92%30.12 "HgN/A
8:00 PM9 °FPassing clouds.6 mph85%30.12 "HgN/A
7:30 PM10 °FPassing clouds.6 mph92%30.12 "HgN/A
7:00 PM10 °FPassing clouds.3 mph85%30.12 "HgN/A
6:30 PM14 °FPassing clouds.1 mph79%30.12 "HgN/A
6:00 PM19 °FPassing clouds.3 mph73%30.09 "HgN/A
5:30 PM19 °FPassing clouds.3 mph73%30.09 "HgN/A
5:00 PM21 °FSnow flurries. Scattered clouds.8 mph74%30.09 "Hg5 mi
4:30 PM21 °FSnow flurries. Partly sunny.13 mph80%30.09 "Hg3 mi
4:00 PM21 °FSnow flurries. Partly sunny.13 mph74%30.07 "Hg5 mi
3:30 PM21 °FSnow flurries. Partly sunny.10 mph74%30.07 "Hg5 mi
3:00 PM23 °FPartly sunny.10 mph58%30.07 "HgN/A
2:30 PM23 °FPartly sunny.8 mph58%30.07 "HgN/A
2:00 PM21 °FPartly sunny.15 mph63%30.07 "HgN/A
1:30 PM21 °FPartly sunny.13 mph63%30.07 "HgN/A
1:00 PM19 °FScattered clouds.6 mph73%30.07 "HgN/A
12:30 PM16 °FSnow flurries. Scattered clouds.6 mph79%30.07 "Hg5 mi
12:00 PM16 °FSnow flurries. Scattered clouds.3 mph79%30.09 "Hg5 mi
11:30 AM16 °FIce fog.No wind73%30.09 "Hg3 mi
11:00 AM9 °FScattered clouds.1 mph78%30.09 "Hg4 mi
10:30 AM9 °FScattered clouds.No wind85%30.09 "Hg4 mi
10:00 AM7 °FSnow flurries. Scattered clouds.No wind92%30.09 "Hg4 mi
9:30 AM3 °FScattered clouds.No wind92%30.09 "Hg5 mi
9:00 AM0 °FSnow flurries. Scattered clouds.No wind84%30.09 "Hg2 mi
8:30 AM-6 °FSnow flurries. Scattered clouds.No wind77%30.09 "Hg2 mi
8:00 AM-8 °FSnow flurries. Scattered clouds.No wind84%30.07 "Hg4 mi
7:30 AM-6 °FSnow flurries. Passing clouds.No wind84%30.07 "Hg4 mi
7:00 AM-6 °FSnow showers. Passing clouds.No wind84%30.07 "Hg2 mi
Weather by CustomWeather, © 2014

See weather overviewHow to use our weather pages